| time (UTC) | temp F | wind direction | speed MPH | gust MPH | rain 1hr in | rain 24hr in | rain mn in | humidity % | barometer mb |
| 20260508163603 | 51 | 0 | 0.0 | 0.0 | 0.00 | 0.36 | 0.00 | 94 | 1025.4 |
| 20260508162703 | 51 | 0 | 0.0 | 0.0 | 0.00 | 0.36 | 0.00 | 94 | 1025.3 |
| 20260508161824 | 51 | 0 | 0.0 | 0.0 | 0.00 | 0.36 | 0.00 | 94 | 1025.4 |
| 20260508160903 | 51 | 0 | 0.0 | 0.0 | 0.00 | 0.36 | 0.00 | 94 | 1025.4 |
| 20260508160003 | 51 | 0 | 0.0 | 0.0 | 0.00 | 0.37 | 0.00 | 94 | 1025.3 |
| 20260508155403 | 51 | 0 | 0.0 | 0.0 | 0.00 | 0.37 | 0.00 | 94 | 1025.2 |
| 20260508154503 | 51 | 0 | 0.0 | 0.0 | 0.00 | 0.37 | 0.00 | 94 | 1025.3 |
| 20260508153603 | 51 | 0 | 0.0 | 0.0 | 0.00 | 0.37 | 0.00 | 94 | 1025.3 |
| 20260508152724 | 51 | 0 | 0.0 | 0.0 | 0.00 | 0.37 | 0.00 | 94 | 1025.4 |
| 20260508151803 | 51 | 0 | 0.0 | 0.0 | 0.00 | 0.37 | 0.00 | 94 | 1025.2 |
| 20260508150903 | 51 | 0 | 0.0 | 0.0 | 0.00 | 0.37 | 0.00 | 94 | 1025.3 |
| 20260508150003 | 51 | 0 | 0.0 | 0.0 | 0.00 | 0.37 | 0.00 | 94 | 1025.4 |
| 20260508145424 | 51 | 0 | 0.0 | 0.0 | 0.00 | 0.37 | 0.00 | 94 | 1025.3 |
| 20260508144503 | 51 | 0 | 0.0 | 0.0 | 0.00 | 0.37 | 0.00 | 94 | 1025.3 |
| 20260508143603 | 51 | 0 | 0.0 | 0.0 | 0.00 | 0.37 | 0.00 | 94 | 1025.3 |
| 20260508142703 | 51 | 0 | 0.0 | 0.0 | 0.00 | 0.37 | 0.00 | 94 | 1025.4 |
| 20260508141802 | 51 | 0 | 0.0 | 0.0 | 0.00 | 0.37 | 0.00 | 94 | 1025.3 |
| 20260508140924 | 51 | 0 | 0.0 | 0.0 | 0.00 | 0.37 | 0.00 | 94 | 1025.3 |
| 20260508140024 | 51 | 0 | 0.0 | 0.0 | 0.00 | 0.37 | 0.00 | 94 | 1025.4 |
| 20260508135403 | 51 | 0 | 0.0 | 0.0 | 0.00 | 0.37 | 0.37 | 94 | 1025.4 |
| 20260508134503 | 52 | 0 | 0.0 | 0.0 | 0.00 | 0.37 | 0.37 | 94 | 1025.4 |
| 20260508133603 | 52 | 0 | 0.0 | 0.0 | 0.01 | 0.37 | 0.37 | 94 | 1025.4 |
| 20260508132703 | 52 | 0 | 0.0 | 0.0 | 0.01 | 0.37 | 0.37 | 93 | 1025.3 |
| 20260508131803 | 52 | 0 | 0.0 | 0.0 | 0.01 | 0.37 | 0.37 | 93 | 1025.4 |
| 20260508130903 | 52 | 0 | 0.0 | 1.0 | 0.01 | 0.38 | 0.37 | 93 | 1025.3 |
| 20260508130003 | 52 | 0 | 0.0 | 2.0 | 0.01 | 0.38 | 0.37 | 93 | 1025.4 |
| 20260508125403 | 52 | 0 | 0.0 | 0.0 | 0.01 | 0.38 | 0.37 | 93 | 1025.4 |
| 20260508124524 | 52 | 0 | 0.0 | 2.0 | 0.01 | 0.38 | 0.37 | 93 | 1025.4 |
| 20260508123624 | 52 | 0 | 0.0 | 2.0 | 0.00 | 0.37 | 0.36 | 93 | 1025.6 |
| 20260508122703 | 52 | 0 | 0.0 | 2.0 | 0.00 | 0.37 | 0.36 | 94 | 1025.6 |
| 20260508121824 | 52 | 0 | 0.0 | 4.0 | 0.00 | 0.37 | 0.36 | 94 | 1025.7 |
| 20260508120924 | 52 | 0 | 0.0 | 3.0 | 0.00 | 0.37 | 0.36 | 94 | 1025.6 |
| 20260508120003 | 52 | 0 | 0.0 | 0.0 | 0.00 | 0.37 | 0.36 | 93 | 1025.6 |
| 20260508115424 | 52 | 0 | 0.0 | 0.0 | 0.00 | 0.37 | 0.36 | 93 | 1025.5 |
| 20260508114524 | 52 | 0 | 0.0 | 0.0 | 0.00 | 0.37 | 0.36 | 93 | 1025.5 |
| 20260508113602 | 52 | 0 | 0.0 | 4.0 | 0.00 | 0.37 | 0.36 | 93 | 1025.4 |
| 20260508112703 | 52 | 0 | 0.0 | 2.0 | 0.00 | 0.37 | 0.36 | 93 | 1025.3 |
| 20260508111803 | 52 | 0 | 0.0 | 0.0 | 0.00 | 0.37 | 0.36 | 93 | 1025.3 |
| 20260508110903 | 52 | 0 | 0.0 | 0.0 | 0.00 | 0.38 | 0.36 | 93 | 1025.3 |
| 20260508110003 | 52 | 0 | 0.0 | 1.0 | 0.00 | 0.38 | 0.36 | 93 | 1025.1 |
| 20260508105403 | 52 | 0 | 0.0 | 1.0 | 0.00 | 0.38 | 0.36 | 93 | 1025.1 |
| 20260508104503 | 52 | 0 | 0.0 | 0.0 | 0.00 | 0.38 | 0.36 | 92 | 1025.2 |
| 20260508103602 | 52 | 0 | 0.0 | 0.0 | 0.00 | 0.39 | 0.36 | 92 | 1025.0 |
| 20260508102724 | 52 | 0 | 0.0 | 0.0 | 0.00 | 0.40 | 0.36 | 92 | 1024.9 |
| 20260508101803 | 51 | 0 | 0.0 | 0.0 | 0.00 | 0.40 | 0.36 | 92 | 1024.9 |
| 20260508095404 | 52 | 0 | 0.0 | 1.0 | 0.00 | 0.41 | 0.36 | 92 | 1024.7 |
| 20260508094504 | 52 | 0 | 0.0 | 1.0 | 0.00 | 0.41 | 0.36 | 92 | 1024.6 |
| 20260508093625 | 52 | 0 | 0.0 | 0.0 | 0.00 | 0.41 | 0.36 | 91 | 1024.6 |
| 20260508092704 | 52 | 0 | 0.0 | 3.0 | 0.00 | 0.41 | 0.36 | 92 | 1024.6 |
| 20260508091804 | 52 | 0 | 0.0 | 1.0 | 0.00 | 0.41 | 0.36 | 92 | 1024.4 |
| 20260508090903 | 52 | 0 | 0.0 | 2.0 | 0.00 | 0.41 | 0.36 | 92 | 1024.5 |
| 20260508090004 | 52 | 0 | 0.0 | 3.0 | 0.00 | 0.41 | 0.36 | 91 | 1024.6 |
| 20260508085404 | 52 | 0 | 0.0 | 4.0 | 0.00 | 0.41 | 0.36 | 91 | 1024.6 |
| 20260508084504 | 52 | 157 | 0.0 | 4.0 | 0.00 | 0.42 | 0.36 | 91 | 1024.5 |
| 20260508083603 | 52 | 157 | 1.0 | 4.0 | 0.00 | 0.42 | 0.36 | 91 | 1024.4 |
| 20260508082725 | 52 | 0 | 0.0 | 4.0 | 0.00 | 0.42 | 0.36 | 91 | 1024.3 |
| 20260508081803 | 52 | 0 | 0.0 | 1.0 | 0.00 | 0.42 | 0.36 | 90 | 1024.1 |
| 20260508080904 | 52 | 0 | 0.0 | 4.0 | 0.00 | 0.42 | 0.36 | 90 | 1024.0 |
| 20260508080004 | 53 | 0 | 0.0 | 0.0 | 0.00 | 0.42 | 0.36 | 89 | 1024.1 |
| 20260508075404 | 53 | 0 | 0.0 | 0.0 | 0.00 | 0.43 | 0.36 | 89 | 1023.8 |
| 20260508074503 | 54 | 0 | 0.0 | 0.0 | 0.00 | 0.44 | 0.36 | 89 | 1023.8 |
| 20260508073604 | 54 | 157 | 0.0 | 2.0 | 0.00 | 0.44 | 0.36 | 89 | 1023.7 |
| 20260508072704 | 54 | 157 | 1.0 | 2.0 | 0.00 | 0.44 | 0.36 | 90 | 1023.5 |
| 20260508071804 | 54 | 157 | 0.0 | 6.0 | 0.00 | 0.44 | 0.36 | 89 | 1023.4 |
| 20260508070903 | 55 | 0 | 0.0 | 3.0 | 0.00 | 0.44 | 0.36 | 89 | 1023.4 |
| 20260508070004 | 55 | 0 | 0.0 | 3.0 | 0.00 | 0.45 | 0.36 | 89 | 1023.4 |
| 20260508065403 | 55 | 157 | 0.0 | 2.0 | 0.00 | 0.45 | 0.36 | 89 | 1023.4 |
| 20260508064504 | 56 | 157 | 0.0 | 4.0 | 0.00 | 0.45 | 0.36 | 89 | 1023.2 |
| 20260508063604 | 56 | 0 | 0.0 | 0.0 | 0.01 | 0.45 | 0.36 | 89 | 1023.2 |
| 20260508062724 | 56 | 0 | 0.0 | 0.0 | 0.01 | 0.45 | 0.36 | 89 | 1023.3 |
| 20260508061803 | 56 | 0 | 0.0 | 2.0 | 0.01 | 0.45 | 0.36 | 88 | 1023.2 |
| 20260508060904 | 56 | 0 | 0.0 | 2.0 | 0.01 | 0.45 | 0.36 | 87 | 1023.1 |
| 20260508060004 | 56 | 157 | 0.0 | 3.0 | 0.01 | 0.46 | 0.36 | 87 | 1023.2 |
| 20260508055404 | 56 | 157 | 0.0 | 3.0 | 0.01 | 0.47 | 0.36 | 86 | 1023.1 |
| 20260508054503 | 56 | 157 | 1.0 | 6.0 | 0.01 | 0.47 | 0.36 | 85 | 1023.1 |
| 20260508053603 | 57 | 157 | 2.0 | 9.0 | 0.00 | 0.46 | 0.35 | 84 | 1023.0 |
| 20260508052703 | 57 | 157 | 2.0 | 9.0 | 0.00 | 0.46 | 0.35 | 84 | 1022.9 |
| 20260508051804 | 57 | 157 | 2.0 | 8.0 | 0.00 | 0.46 | 0.35 | 83 | 1022.9 |
| 20260508050903 | 57 | 157 | 2.0 | 9.0 | 0.00 | 0.46 | 0.35 | 81 | 1023.0 |
| 20260508050024 | 57 | 157 | 2.0 | 6.0 | 0.00 | 0.46 | 0.35 | 79 | 1022.7 |
| 20260508045403 | 58 | 157 | 2.0 | 8.0 | 0.00 | 0.46 | 0.35 | 81 | 1022.8 |
| 20260508044524 | 57 | 157 | 2.0 | 8.0 | 0.00 | 0.46 | 0.35 | 83 | 1022.8 |
| 20260508043603 | 56 | 157 | 2.0 | 9.0 | 0.00 | 0.46 | 0.35 | 84 | 1022.7 |
| 20260508042703 | 56 | 157 | 2.0 | 5.0 | 0.00 | 0.46 | 0.35 | 86 | 1022.7 |
| 20260508041803 | 56 | 157 | 3.0 | 8.0 | 0.00 | 0.46 | 0.35 | 86 | 1022.6 |
| 20260508040903 | 56 | 157 | 2.0 | 10.0 | 0.00 | 0.46 | 0.35 | 85 | 1022.7 |
| 20260508040003 | 56 | 157 | 2.0 | 8.0 | 0.00 | 0.46 | 0.35 | 86 | 1022.7 |
| 20260508035403 | 57 | 157 | 3.0 | 8.0 | 0.00 | 0.46 | 0.35 | 87 | 1022.6 |
| 20260508034524 | 57 | 157 | 2.0 | 12.0 | 0.00 | 0.46 | 0.35 | 86 | 1022.5 |
| 20260508033603 | 57 | 157 | 3.0 | 8.0 | 0.00 | 0.47 | 0.35 | 86 | 1022.5 |
| 20260508032703 | 56 | 157 | 3.0 | 8.0 | 0.00 | 0.48 | 0.35 | 87 | 1022.4 |
| 20260508031803 | 56 | 157 | 2.0 | 9.0 | 0.00 | 0.48 | 0.35 | 88 | 1022.5 |
| 20260508030903 | 55 | 157 | 3.0 | 12.0 | 0.00 | 0.48 | 0.35 | 91 | 1022.3 |
| 20260508030003 | 55 | 157 | 3.0 | 12.0 | 0.00 | 0.48 | 0.35 | 91 | 1022.4 |
| 20260508025403 | 55 | 157 | 2.0 | 8.0 | 0.00 | 0.48 | 0.35 | 92 | 1022.4 |
| 20260508024503 | 55 | 157 | 2.0 | 6.0 | 0.00 | 0.48 | 0.35 | 93 | 1022.5 |
| 20260508023624 | 54 | 157 | 3.0 | 12.0 | 0.00 | 0.48 | 0.35 | 93 | 1022.5 |
| 20260508022703 | 55 | 157 | 2.0 | 11.0 | 0.00 | 0.48 | 0.35 | 94 | 1022.6 |
| 20260508021803 | 55 | 157 | 2.0 | 6.0 | 0.01 | 0.48 | 0.35 | 95 | 1022.7 |
| 20260508020903 | 55 | 157 | 3.0 | 10.0 | 0.01 | 0.50 | 0.35 | 95 | 1022.7 |
| 20260508020003 | 56 | 157 | 3.0 | 10.0 | 0.01 | 0.51 | 0.35 | 96 | 1022.9 |
| 20260508015403 | 56 | 157 | 3.0 | 10.0 | 0.01 | 0.51 | 0.35 | 96 | 1022.8 |
| 20260508014524 | 56 | 157 | 2.0 | 9.0 | 0.01 | 0.51 | 0.35 | 97 | 1022.8 |
| 20260508013603 | 55 | 157 | 2.0 | 6.0 | 0.01 | 0.51 | 0.35 | 96 | 1022.8 |
| 20260508012703 | 55 | 157 | 2.0 | 8.0 | 0.01 | 0.51 | 0.35 | 96 | 1022.9 |
| 20260508011803 | 55 | 157 | 3.0 | 11.0 | 0.00 | 0.50 | 0.34 | 96 | 1022.9 |
| 20260508010903 | 55 | 157 | 2.0 | 8.0 | 0.00 | 0.50 | 0.34 | 96 | 1022.7 |
| 20260508010003 | 55 | 157 | 2.0 | 6.0 | 0.00 | 0.50 | 0.34 | 96 | 1022.8 |
| 20260508005403 | 55 | 157 | 1.0 | 6.0 | 0.00 | 0.50 | 0.34 | 96 | 1022.6 |
| 20260508004524 | 55 | 157 | 2.0 | 6.0 | 0.00 | 0.50 | 0.34 | 96 | 1022.6 |
| 20260508003624 | 55 | 157 | 2.0 | 9.0 | 0.00 | 0.50 | 0.34 | 96 | 1022.5 |
| 20260508002703 | 55 | 157 | 2.0 | 10.0 | 0.01 | 0.50 | 0.34 | 96 | 1022.2 |
| 20260508001803 | 55 | 157 | 3.0 | 12.0 | 0.02 | 0.50 | 0.34 | 96 | 1022.2 |
| 20260508000924 | 55 | 157 | 3.0 | 10.0 | 0.02 | 0.50 | 0.34 | 96 | 1022.3 |
| 20260508000003 | 54 | 157 | 3.0 | 10.0 | 0.03 | 0.50 | 0.34 | 96 | 1022.3 |
| 20260507235403 | 54 | 157 | 2.0 | 9.0 | 0.03 | 0.50 | 0.34 | 96 | 1022.2 |
| 20260507234503 | 54 | 157 | 2.0 | 6.0 | 0.03 | 0.50 | 0.34 | 96 | 1022.2 |
| 20260507233603 | 54 | 157 | 3.0 | 11.0 | 0.03 | 0.50 | 0.34 | 96 | 1022.2 |
| 20260507232703 | 54 | 157 | 2.0 | 11.0 | 0.03 | 0.49 | 0.33 | 96 | 1022.3 |
| 20260507231803 | 54 | 157 | 2.0 | 9.0 | 0.02 | 0.48 | 0.32 | 96 | 1022.0 |
| 20260507230903 | 53 | 157 | 2.0 | 5.0 | 0.02 | 0.48 | 0.32 | 96 | 1021.9 |
| 20260507230003 | 54 | 157 | 2.0 | 6.0 | 0.01 | 0.47 | 0.31 | 96 | 1021.8 |
| 20260507225403 | 53 | 157 | 3.0 | 4.0 | 0.01 | 0.47 | 0.31 | 96 | 1021.8 |
| 20260507224504 | 53 | 157 | 4.0 | 13.0 | 0.01 | 0.48 | 0.31 | 96 | 1021.8 |
| 20260507223624 | 53 | 157 | 2.0 | 13.0 | 0.01 | 0.48 | 0.31 | 96 | 1021.8 |
| 20260507222724 | 53 | 157 | 1.0 | 4.0 | 0.00 | 0.47 | 0.31 | 96 | 1021.6 |
| 20260507221803 | 53 | 157 | 1.0 | 5.0 | 0.03 | 0.47 | 0.31 | 96 | 1021.5 |
| 20260507220903 | 52 | 157 | 1.0 | 10.0 | 0.06 | 0.47 | 0.31 | 96 | 1021.4 |
| 20260507220024 | 52 | 157 | 2.0 | 14.0 | 0.06 | 0.47 | 0.31 | 96 | 1021.2 |
| 20260507215403 | 52 | 157 | 2.0 | 14.0 | 0.07 | 0.47 | 0.31 | 96 | 1021.2 |
| 20260507214524 | 52 | 157 | 2.0 | 8.0 | 0.08 | 0.47 | 0.31 | 96 | 1021.1 |
| 20260507213603 | 52 | 157 | 2.0 | 9.0 | 0.08 | 0.47 | 0.31 | 96 | 1021.0 |
| 20260507212703 | 53 | 157 | 2.0 | 10.0 | 0.08 | 0.47 | 0.31 | 96 | 1020.8 |
| 20260507211824 | 53 | 157 | 2.0 | 8.0 | 0.05 | 0.44 | 0.29 | 96 | 1020.8 |
| 20260507210924 | 53 | 157 | 2.0 | 6.0 | 0.03 | 0.41 | 0.25 | 96 | 1020.5 |
| 20260507210003 | 53 | 157 | 4.0 | 10.0 | 0.05 | 0.42 | 0.25 | 96 | 1020.5 |
| 20260507205403 | 53 | 157 | 3.0 | 12.0 | 0.07 | 0.42 | 0.24 | 96 | 1020.4 |
| 20260507204503 | 53 | 157 | 2.0 | 10.0 | 0.09 | 0.42 | 0.23 | 96 | 1020.1 |
| 20260507203624 | 53 | 157 | 3.0 | 10.0 | 0.11 | 0.42 | 0.23 | 96 | 1020.2 |
| 20260507202703 | 53 | 157 | 3.0 | 6.0 | 0.12 | 0.42 | 0.23 | 96 | 1020.2 |
| 20260507201803 | 53 | 157 | 3.0 | 10.0 | 0.12 | 0.42 | 0.23 | 96 | 1020.1 |
| 20260507200903 | 53 | 157 | 3.0 | 12.0 | 0.13 | 0.41 | 0.22 | 96 | 1020.2 |
| 20260507200003 | 53 | 157 | 3.0 | 6.0 | 0.12 | 0.39 | 0.20 | 95 | 1020.1 |
| 20260507195424 | 53 | 157 | 3.0 | 9.0 | 0.10 | 0.36 | 0.17 | 95 | 1020.1 |
| 20260507194503 | 53 | 157 | 3.0 | 9.0 | 0.09 | 0.33 | 0.14 | 95 | 1019.8 |
| 20260507193603 | 53 | 157 | 2.0 | 9.0 | 0.07 | 0.36 | 0.12 | 96 | 1019.8 |
| 20260507192703 | 53 | 157 | 2.0 | 5.0 | 0.07 | 0.40 | 0.11 | 95 | 1019.8 |
| 20260507191803 | 53 | 157 | 3.0 | 15.0 | 0.08 | 0.41 | 0.11 | 95 | 1019.6 |
| 20260507190903 | 53 | 157 | 4.0 | 10.0 | 0.06 | 0.39 | 0.09 | 95 | 1019.7 |
| 20260507190024 | 53 | 157 | 3.0 | 11.0 | 0.05 | 0.38 | 0.08 | 95 | 1019.6 |
| 20260507185403 | 53 | 157 | 3.0 | 9.0 | 0.05 | 0.37 | 0.07 | 95 | 1019.6 |
| 20260507184524 | 53 | 157 | 3.0 | 8.0 | 0.03 | 0.35 | 0.05 | 95 | 1019.4 |
| 20260507183603 | 53 | 157 | 4.0 | 16.0 | 0.04 | 0.35 | 0.05 | 95 | 1019.4 |
| 20260507182703 | 53 | 157 | 4.0 | 11.0 | 0.03 | 0.36 | 0.04 | 95 | 1019.3 |
| 20260507181803 | 53 | 157 | 4.0 | 12.0 | 0.02 | 0.37 | 0.03 | 95 | 1019.1 |
| 20260507180903 | 52 | 157 | 3.0 | 13.0 | 0.02 | 0.39 | 0.03 | 95 | 1019.2 |
| 20260507180003 | 52 | 157 | 3.0 | 10.0 | 0.02 | 0.39 | 0.03 | 95 | 1019.2 |
| 20260507175403 | 52 | 157 | 3.0 | 10.0 | 0.01 | 0.38 | 0.02 | 95 | 1019.1 |
| 20260507174503 | 52 | 157 | 4.0 | 14.0 | 0.01 | 0.39 | 0.02 | 95 | 1018.9 |
| 20260507173603 | 52 | 157 | 4.0 | 12.0 | 0.00 | 0.40 | 0.01 | 95 | 1019.0 |
| 20260507172703 | 52 | 157 | 4.0 | 17.0 | 0.00 | 0.42 | 0.01 | 95 | 1019.0 |
| 20260507171803 | 52 | 157 | 4.0 | 14.0 | 0.00 | 0.46 | 0.01 | 95 | 1018.9 |
| 20260507170903 | 52 | 157 | 5.0 | 13.0 | 0.00 | 0.47 | 0.01 | 95 | 1018.9 |
| 20260507170003 | 52 | 157 | 5.0 | 12.0 | 0.01 | 0.47 | 0.01 | 95 | 1018.9 |
| 20260507165403 | 52 | 157 | 5.0 | 14.0 | 0.01 | 0.48 | 0.01 | 95 | 1019.0 |
| 20260507164503 | 52 | 157 | 4.0 | 13.0 | 0.01 | 0.51 | 0.01 | 95 | 1019.0 |